Retour au catalogue

ONEWEB-0518

ActifCommunicationsPO
NORAD 54136·PAYLOAD·🇬🇧 United Kingdom

Lancé Oct 22, 2022 depuis Satish Dhawan Space Centre

Loading…

Prochains Passages (prochaines 24 heures)

TLE

FraisSource: CelesTrak SupGP

Époque: Sep 14, 2026, 18:49 UTC

1 54136C 22138Z   26257.78456435 -.00000773  00000+0 -19329-2 0  2570
2 54136  87.9112 287.1239 0001796  89.6914  21.9616 13.19725676    14

Suivez ONEWEB-0518 en temps réel avec AllMySat

Download on the App Store